AGILE 1 31135U 07013A 21100.37120763 .00002838 00000-0 50299-4 0 9997 2 31135 2.4685 30.9403 0011245 141.4644 218.6213 15.33350310410299 PSLV R/B [AAM] 1 31136U 07013B 21100.30395282 .00008523 00000-0 10745-3 0 9999 2 31136 2.5039 37.9199 0003404 155.8583 204.1632 15.53314147780624